Weather in Iyerusalimskiy

Russia / Samara Oblast     52°47′38″N   49°19′18″E
temp.,
°C
wind,
m/s
gust,
m/s
humid.,
%
clouds,
%
prec.,
mm/h
press.,
hPa
HPBL,
m
19 september, sun
sun1901:00+5n3571100 0.0 102496
04:00+3nnw227775 0.0 102422
07:00+3n227252 0.0 102547
10:00+9n335310 0.0 1026827
13:00+12nnw223997 0.0 10251400
16:00+13n3234100 0.0 10241403
19:00+8ne4646100 0.0 1024101
22:00+7ene3447100 0.0 102578
20 september, mon
mon2001:00+6e355078 0.0 102590
04:00+5e365466 0.0 1025110
07:00+4ese3757100 0.0 1025147
10:00+10e564097 0.0 1025597
13:00+14e5530100 0.0 10241262
16:00+15ese5626100 0.0 10231445
19:00+12e3331100 0.0 102362
22:00+11e4935100 0.0 1023298
21 september, tue
tue2101:00+10e4840100 0.0 1023268
04:00+9e51150100 0.2 1022573
07:00+8e61369100 1.0 1022556
10:00+8e61466100 1.4 1021483
13:00+10e61253100 0.0 1020596
16:00+9ese6126599 0.0 1020493
19:00+10e7136370 0.0 1019382
22:00+9e6126298 0.0 1018304
22 september, wed
wed2201:00+9e4105797 0.0 1017275
04:00+11ese5958100 0.1 1016328
07:00+11se51070100 0.1 1016308
10:00+11se71286100 0.2 1017455
13:00+10se71490100 2.3 1018488
16:00+11se61289100 3.1 1018503
19:00+11ese51085100 0.4 1019340
22:00+11ese61376100 0.4 1019384
23 september, thu
thu2301:00+11se51264100 0.0 1020338
04:00+11se61361100 0.3 1020366
07:00+11sse71373100 0.1 1020336
10:00+13s81462100 0.2 1022648
13:00+11sse41179100 1.4 1023526
16:00+10se51183100 3.6 1023575
19:00+9se61484100 1.4 1023622
22:00+9ese51277100 1.6 1023419